| time (UTC) | temp C | wind direction | speed KPH | gust KPH | rain 1hr cm | rain 24hr cm | rain mn cm | humidity % | barometer mb |
| 20260503012256 | 8 | 222 | 0.0 | 3.2 | 0.00 | 0.00 | 0.00 | 53 | 1019.3 |
| 20260503011752 | 8 | 233 | 0.0 | 4.8 | 0.00 | 0.00 | 0.00 | 52 | 1019.3 |
| 20260503011249 | 8 | 252 | 1.6 | 3.2 | 0.00 | 0.00 | 0.00 | 53 | 1019.2 |
| 20260503010745 | 8 | 268 | 0.0 | 1.6 | 0.00 | 0.00 | 0.00 | 52 | 1019.3 |
| 20260503010242 | 9 | 5 | 0.0 | 1.6 | 0.00 | 0.00 | 0.00 | 53 | 1019.3 |
| 20260503005740 | 9 | 237 | 0.0 | 4.8 | 0.00 | 0.00 | 0.00 | 50 | 1019.2 |
| 20260503005237 | 9 | 234 | 0.0 | 1.6 | 0.00 | 0.00 | 0.00 | 52 | 1018.8 |
| 20260503004733 | 9 | 216 | 0.0 | 3.2 | 0.00 | 0.00 | 0.00 | 52 | 1018.9 |
| 20260503004231 | 9 | 208 | 0.0 | 0.0 | 0.00 | 0.00 | 0.00 | 57 | 1018.8 |
| 20260503003728 | 9 | 97 | 0.0 | 0.0 | 0.00 | 0.00 | 0.00 | 54 | 1018.7 |
| 20260503003225 | 10 | 231 | 0.0 | 1.6 | 0.00 | 0.00 | 0.00 | 58 | 1018.6 |
| 20260503002722 | 10 | 242 | 0.0 | 0.0 | 0.00 | 0.00 | 0.00 | 54 | 1018.7 |
| 20260503002219 | 10 | 274 | 0.0 | 1.6 | 0.00 | 0.00 | 0.00 | 50 | 1018.6 |
| 20260503001715 | 10 | 256 | 0.0 | 0.0 | 0.00 | 0.00 | 0.00 | 49 | 1018.5 |
| 20260503001212 | 10 | 22 | 0.0 | 3.2 | 0.00 | 0.00 | 0.00 | 48 | 1018.7 |
| 20260503000710 | 10 | 250 | 0.0 | 1.6 | 0.00 | 0.00 | 0.00 | 47 | 1018.6 |
| 20260503000207 | 11 | 337 | 1.6 | 6.4 | 0.00 | 0.00 | 0.00 | 45 | 1018.3 |
| 20260502235703 | 11 | 222 | 8.0 | 11.3 | 0.00 | 0.00 | 0.00 | 46 | 1018.2 |
| 20260502235201 | 11 | 274 | 3.2 | 4.8 | 0.00 | 0.00 | 0.00 | 46 | 1018.2 |
| 20260502234657 | 11 | 46 | 0.0 | 6.4 | 0.00 | 0.00 | 0.00 | 46 | 1018.3 |
| 20260502234155 | 11 | 261 | 1.6 | 9.7 | 0.00 | 0.00 | 0.00 | 46 | 1018.2 |
| 20260502233650 | 11 | 260 | 6.4 | 9.7 | 0.00 | 0.00 | 0.00 | 46 | 1018.1 |
| 20260502233147 | 11 | 271 | 3.2 | 4.8 | 0.00 | 0.00 | 0.00 | 47 | 1018.3 |
| 20260502232643 | 11 | 257 | 1.6 | 6.4 | 0.00 | 0.00 | 0.00 | 48 | 1018.2 |
| 20260502232141 | 11 | 277 | 1.6 | 1.6 | 0.00 | 0.00 | 0.00 | 46 | 1018.1 |
| 20260502231637 | 11 | 236 | 0.0 | 4.8 | 0.00 | 0.00 | 0.00 | 47 | 1018.0 |
| 20260502231135 | 11 | 339 | 3.2 | 4.8 | 0.00 | 0.00 | 0.00 | 44 | 1018.2 |
| 20260502230633 | 11 | 209 | 3.2 | 4.8 | 0.00 | 0.00 | 0.00 | 45 | 1018.0 |
| 20260502230132 | 11 | 256 | 4.8 | 6.4 | 0.00 | 0.00 | 0.00 | 44 | 1018.1 |
| 20260502225626 | 11 | 321 | 3.2 | 9.7 | 0.00 | 0.00 | 0.00 | 44 | 1017.9 |
| 20260502225125 | 11 | 234 | 3.2 | 6.4 | 0.00 | 0.00 | 0.00 | 45 | 1017.9 |
| 20260502224620 | 11 | 210 | 3.2 | 4.8 | 0.00 | 0.00 | 0.00 | 45 | 1017.9 |
| 20260502224117 | 11 | 228 | 4.8 | 6.4 | 0.00 | 0.00 | 0.00 | 43 | 1017.7 |
| 20260502223615 | 11 | 287 | 3.2 | 4.8 | 0.00 | 0.00 | 0.00 | 44 | 1017.7 |
| 20260502223113 | 12 | 196 | 8.0 | 11.3 | 0.00 | 0.00 | 0.00 | 44 | 1017.7 |
| 20260502222610 | 12 | 11 | 9.7 | 11.3 | 0.00 | 0.00 | 0.00 | 43 | 1017.6 |
| 20260502222106 | 12 | 305 | 3.2 | 9.7 | 0.00 | 0.00 | 0.00 | 43 | 1018.0 |
| 20260502221602 | 12 | 205 | 9.7 | 12.9 | 0.00 | 0.00 | 0.00 | 43 | 1017.6 |
| 20260502221100 | 12 | 229 | 0.0 | 4.8 | 0.00 | 0.00 | 0.00 | 43 | 1017.6 |
| 20260502220555 | 12 | 268 | 8.0 | 11.3 | 0.00 | 0.00 | 0.00 | 43 | 1017.7 |
| 20260502220052 | 12 | 285 | 6.4 | 12.9 | 0.00 | 0.00 | 0.00 | 42 | 1017.7 |
| 20260502215549 | 12 | 255 | 3.2 | 4.8 | 0.00 | 0.00 | 0.00 | 44 | 1017.6 |
| 20260502215046 | 12 | 310 | 4.8 | 6.4 | 0.00 | 0.00 | 0.00 | 42 | 1017.5 |
| 20260502214543 | 12 | 5 | 4.8 | 9.7 | 0.00 | 0.00 | 0.00 | 41 | 1017.4 |
| 20260502214041 | 12 | 270 | 3.2 | 11.3 | 0.00 | 0.00 | 0.00 | 43 | 1017.6 |
| 20260502213537 | 12 | 313 | 9.7 | 12.9 | 0.00 | 0.00 | 0.00 | 41 | 1017.4 |
| 20260502213035 | 12 | 293 | 4.8 | 11.3 | 0.00 | 0.00 | 0.00 | 43 | 1017.3 |
| 20260502212534 | 12 | 39 | 1.6 | 6.4 | 0.00 | 0.00 | 0.00 | 44 | 1017.4 |
| 20260502212031 | 12 | 277 | 3.2 | 11.3 | 0.00 | 0.00 | 0.00 | 43 | 1017.3 |
| 20260502211526 | 12 | 254 | 6.4 | 9.7 | 0.00 | 0.00 | 0.00 | 42 | 1017.4 |
| 20260502211024 | 12 | 287 | 3.2 | 14.5 | 0.00 | 0.00 | 0.00 | 42 | 1017.3 |
| 20260502210521 | 12 | 295 | 4.8 | 12.9 | 0.00 | 0.00 | 0.00 | 43 | 1017.4 |
| 20260502210018 | 12 | 243 | 6.4 | 11.3 | 0.00 | 0.00 | 0.00 | 44 | 1017.6 |
| 20260502205514 | 12 | 16 | 3.2 | 9.7 | 0.00 | 0.00 | 0.00 | 44 | 1017.3 |
| 20260502205011 | 12 | 3 | 3.2 | 12.9 | 0.00 | 0.00 | 0.00 | 46 | 1017.5 |
| 20260502204508 | 12 | 296 | 1.6 | 6.4 | 0.00 | 0.00 | 0.00 | 44 | 1017.5 |
| 20260502204007 | 12 | 275 | 6.4 | 9.7 | 0.00 | 0.00 | 0.00 | 45 | 1017.6 |
| 20260502203503 | 12 | 287 | 9.7 | 12.9 | 0.00 | 0.00 | 0.00 | 44 | 1017.5 |
| 20260502203000 | 12 | 281 | 9.7 | 11.3 | 0.00 | 0.00 | 0.00 | 45 | 1017.6 |
| 20260502202456 | 12 | 275 | 3.2 | 12.9 | 0.00 | 0.00 | 0.00 | 45 | 1017.7 |
| 20260502201954 | 13 | 2 | 0.0 | 3.2 | 0.00 | 0.00 | 0.00 | 43 | 1017.6 |
| 20260502201450 | 12 | 339 | 3.2 | 4.8 | 0.00 | 0.00 | 0.00 | 46 | 1017.7 |
| 20260502200947 | 11 | 243 | 4.8 | 12.9 | 0.00 | 0.00 | 0.00 | 44 | 1017.7 |
| 20260502200443 | 11 | 295 | 4.8 | 6.4 | 0.00 | 0.00 | 0.00 | 47 | 1017.9 |
| 20260502195940 | 11 | 250 | 0.0 | 4.8 | 0.00 | 0.00 | 0.00 | 46 | 1017.9 |
| 20260502195437 | 11 | 340 | 3.2 | 6.4 | 0.00 | 0.00 | 0.00 | 46 | 1017.9 |
| 20260502194934 | 11 | 26 | 1.6 | 3.2 | 0.00 | 0.00 | 0.00 | 49 | 1018.1 |
| 20260502194431 | 12 | 246 | 3.2 | 4.8 | 0.00 | 0.00 | 0.00 | 44 | 1018.0 |
| 20260502193926 | 12 | 15 | 6.4 | 6.4 | 0.00 | 0.00 | 0.00 | 43 | 1018.0 |
| 20260502193424 | 12 | 209 | 3.2 | 6.4 | 0.00 | 0.00 | 0.00 | 41 | 1017.9 |
| 20260502192919 | 13 | 251 | 6.4 | 11.3 | 0.00 | 0.00 | 0.00 | 39 | 1018.1 |
| 20260502192416 | 13 | 275 | 4.8 | 9.7 | 0.00 | 0.00 | 0.00 | 42 | 1018.0 |
| 20260502191914 | 12 | 283 | 6.4 | 9.7 | 0.00 | 0.00 | 0.00 | 47 | 1018.3 |
| 20260502191411 | 12 | 262 | 6.4 | 16.1 | 0.00 | 0.00 | 0.00 | 42 | 1018.1 |
| 20260502190909 | 12 | 292 | 6.4 | 11.3 | 0.00 | 0.00 | 0.00 | 42 | 1018.1 |
| 20260502190406 | 13 | 71 | 3.2 | 9.7 | 0.00 | 0.00 | 0.00 | 39 | 1018.3 |
| 20260502185902 | 12 | 209 | 3.2 | 14.5 | 0.00 | 0.00 | 0.00 | 44 | 1018.3 |
| 20260502185357 | 12 | 8 | 12.9 | 16.1 | 0.00 | 0.00 | 0.00 | 43 | 1018.5 |
| 20260502184855 | 11 | 334 | 0.0 | 4.8 | 0.00 | 0.00 | 0.00 | 48 | 1018.5 |
| 20260502184350 | 11 | 235 | 6.4 | 12.9 | 0.00 | 0.00 | 0.00 | 44 | 1018.4 |
| 20260502183847 | 12 | 244 | 1.6 | 4.8 | 0.00 | 0.00 | 0.00 | 44 | 1018.6 |
| 20260502183343 | 12 | 277 | 3.2 | 4.8 | 0.00 | 0.00 | 0.00 | 46 | 1018.6 |
| 20260502182838 | 12 | 280 | 6.4 | 12.9 | 0.00 | 0.00 | 0.00 | 43 | 1018.6 |
| 20260502182334 | 12 | 343 | 3.2 | 6.4 | 0.00 | 0.00 | 0.00 | 44 | 1018.5 |
| 20260502181830 | 11 | 15 | 4.8 | 9.7 | 0.00 | 0.00 | 0.00 | 44 | 1018.7 |
| 20260502181329 | 11 | 305 | 3.2 | 4.8 | 0.00 | 0.00 | 0.00 | 44 | 1018.7 |
| 20260502180827 | 11 | 180 | 3.2 | 11.3 | 0.00 | 0.00 | 0.00 | 43 | 1018.7 |
| 20260502180324 | 11 | 198 | 3.2 | 12.9 | 0.00 | 0.00 | 0.00 | 43 | 1018.7 |
| 20260502170243 | 12 | 76 | 1.6 | 12.9 | 0.00 | 0.00 | 0.00 | 46 | 1019.0 |
| 20260502164231 | 12 | 48 | 3.2 | 9.7 | 0.00 | 0.00 | 0.00 | 48 | 1019.1 |
| 20260502163726 | 11 | 285 | 4.8 | 4.8 | 0.00 | 0.00 | 0.00 | 47 | 1019.2 |
| 20260502163223 | 11 | 357 | 6.4 | 14.5 | 0.00 | 0.00 | 0.00 | 47 | 1019.2 |
| 20260502162719 | 11 | 76 | 3.2 | 9.7 | 0.00 | 0.00 | 0.00 | 44 | 1019.2 |
| 20260502162216 | 12 | 234 | 6.4 | 12.9 | 0.00 | 0.00 | 0.00 | 44 | 1019.2 |
| 20260502161714 | 12 | 126 | 3.2 | 4.8 | 0.00 | 0.00 | 0.00 | 46 | 1019.3 |
| 20260502161210 | 11 | 28 | 4.8 | 9.7 | 0.00 | 0.00 | 0.00 | 48 | 1019.2 |
| 20260502160708 | 12 | 53 | 6.4 | 17.7 | 0.00 | 0.00 | 0.00 | 49 | 1019.3 |
| 20260502160207 | 12 | 275 | 4.8 | 16.1 | 0.00 | 0.00 | 0.00 | 46 | 1019.4 |
| 20260502152114 | 11 | 31 | 3.2 | 9.7 | 0.00 | 0.00 | 0.00 | 48 | 1019.6 |
| 20260502151612 | 11 | 315 | 6.4 | 11.3 | 0.00 | 0.00 | 0.00 | 54 | 1019.7 |
| 20260502151109 | 10 | 8 | 3.2 | 4.8 | 0.00 | 0.00 | 0.00 | 53 | 1019.5 |
| 20260502150606 | 10 | 240 | 9.7 | 12.9 | 0.00 | 0.00 | 0.00 | 51 | 1019.7 |
| 20260502130451 | 6 | 12 | 0.0 | 1.6 | 0.00 | 0.00 | 0.00 | 90 | 1019.7 |
| 20260502123434 | 4 | 50 | 0.0 | 1.6 | 0.00 | 0.00 | 0.00 | 99 | 1019.8 |
| 20260502122931 | 3 | 38 | 1.6 | 1.6 | 0.00 | 0.00 | 0.00 | 99 | 1019.6 |
| 20260502122427 | 3 | 23 | 0.0 | 0.0 | 0.00 | 0.00 | 0.00 | 99 | 1019.6 |
| 20260502121925 | 3 | 16 | 0.0 | 0.0 | 0.00 | 0.00 | 0.00 | 99 | 1019.7 |
| 20260502121422 | 2 | 348 | 0.0 | 0.0 | 0.00 | 0.00 | 0.00 | 99 | 1019.7 |
| 20260502120920 | 2 | 13 | 0.0 | 0.0 | 0.00 | 0.00 | 0.00 | 99 | 1019.6 |
| 20260502120416 | 2 | 14 | 0.0 | 0.0 | 0.00 | 0.00 | 0.00 | 99 | 1019.6 |
| 20260502115913 | 2 | 21 | 0.0 | 0.0 | 0.00 | 0.00 | 0.00 | 99 | 1019.7 |
| 20260502115410 | 2 | 37 | 0.0 | 0.0 | 0.00 | 0.00 | 0.00 | 99 | 1019.5 |
| 20260502114906 | 2 | 41 | 0.0 | 0.0 | 0.00 | 0.00 | 0.00 | 99 | 1019.6 |
| 20260502114403 | 2 | 120 | 0.0 | 0.0 | 0.00 | 0.00 | 0.00 | 99 | 1019.4 |
| 20260502113900 | 2 | 122 | 0.0 | 0.0 | 0.00 | 0.00 | 0.00 | 99 | 1019.4 |
| 20260502113358 | 2 | 123 | 0.0 | 0.0 | 0.00 | 0.00 | 0.00 | 99 | 1019.5 |
| 20260502112856 | 1 | 123 | 0.0 | 0.0 | 0.00 | 0.00 | 0.00 | 99 | 1019.4 |
| 20260502112353 | 1 | 123 | 0.0 | 0.0 | 0.00 | 0.00 | 0.00 | 99 | 1019.2 |
| 20260502111850 | 1 | 123 | 0.0 | 0.0 | 0.00 | 0.00 | 0.00 | 99 | 1019.4 |
| 20260502111348 | 1 | 123 | 0.0 | 0.0 | 0.00 | 0.00 | 0.00 | 99 | 1019.2 |
| 20260502110845 | 0 | 123 | 0.0 | 0.0 | 0.00 | 0.00 | 0.00 | 99 | 1019.2 |
| 20260502110343 | 0 | 123 | 0.0 | 0.0 | 0.00 | 0.00 | 0.00 | 99 | 1019.3 |
| 20260502105840 | 0 | 123 | 0.0 | 0.0 | 0.00 | 0.00 | 0.00 | 99 | 1019.1 |
| 20260502105337 | 0 | 123 | 0.0 | 0.0 | 0.00 | 0.00 | 0.00 | 99 | 1019.1 |
| 20260502104835 | 0 | 122 | 0.0 | 0.0 | 0.00 | 0.00 | 0.00 | 99 | 1018.9 |
| 20260502104332 | 0 | 122 | 0.0 | 0.0 | 0.00 | 0.00 | 0.00 | 99 | 1019.0 |
| 20260502103829 | 0 | 122 | 0.0 | 0.0 | 0.00 | 0.00 | 0.00 | 99 | 1019.0 |
| 20260502103326 | 0 | 122 | 0.0 | 0.0 | 0.00 | 0.00 | 0.00 | 99 | 1018.9 |
| 20260502102824 | 0 | 122 | 0.0 | 0.0 | 0.00 | 0.00 | 0.00 | 99 | 1019.0 |
| 20260502102320 | 0 | 122 | 0.0 | 0.0 | 0.00 | 0.00 | 0.00 | 99 | 1019.0 |
| 20260502101818 | 0 | 122 | 0.0 | 0.0 | 0.00 | 0.00 | 0.00 | 99 | 1019.3 |
| 20260502101316 | 0 | 122 | 0.0 | 0.0 | 0.00 | 0.00 | 0.00 | 99 | 1019.4 |
| 20260502100814 | 0 | 122 | 0.0 | 0.0 | 0.00 | 0.00 | 0.00 | 99 | 1019.5 |
| 20260502100313 | 0 | 122 | 0.0 | 0.0 | 0.00 | 0.00 | 0.00 | 99 | 1019.3 |
| 20260502091247 | 1 | 123 | 0.0 | 0.0 | 0.00 | 0.00 | 0.00 | 99 | 1019.5 |
| 20260502090744 | 1 | 123 | 0.0 | 0.0 | 0.00 | 0.00 | 0.00 | 99 | 1019.3 |
| 20260502090240 | 1 | 123 | 0.0 | 0.0 | 0.00 | 0.00 | 0.00 | 99 | 1019.5 |
| 20260502071141 | 1 | 123 | 0.0 | 0.0 | 0.00 | 0.00 | 0.00 | 98 | 1019.0 |
| 20260502070639 | 1 | 123 | 0.0 | 0.0 | 0.00 | 0.00 | 0.00 | 98 | 1019.0 |
| 20260502070137 | 2 | 122 | 0.0 | 0.0 | 0.00 | 0.00 | 0.00 | 98 | 1019.3 |
| 20260502065635 | 2 | 123 | 0.0 | 0.0 | 0.00 | 0.00 | 0.00 | 98 | 1019.1 |
| 20260502065132 | 2 | 121 | 0.0 | 0.0 | 0.00 | 0.00 | 0.00 | 98 | 1019.1 |
| 20260502064631 | 2 | 122 | 0.0 | 0.0 | 0.00 | 0.00 | 0.00 | 98 | 1019.3 |
| 20260502064128 | 2 | 122 | 0.0 | 0.0 | 0.00 | 0.00 | 0.00 | 98 | 1019.2 |
| 20260502063625 | 2 | 121 | 0.0 | 0.0 | 0.00 | 0.00 | 0.00 | 98 | 1019.2 |
| 20260502063123 | 2 | 121 | 0.0 | 0.0 | 0.00 | 0.00 | 0.00 | 98 | 1019.1 |
| 20260502062620 | 2 | 121 | 0.0 | 0.0 | 0.00 | 0.00 | 0.00 | 98 | 1019.2 |
| 20260502062117 | 2 | 121 | 0.0 | 0.0 | 0.00 | 0.00 | 0.00 | 98 | 1019.2 |
| 20260502061615 | 2 | 121 | 0.0 | 0.0 | 0.00 | 0.00 | 0.00 | 98 | 1019.3 |
| 20260502061113 | 2 | 121 | 0.0 | 0.0 | 0.00 | 0.00 | 0.00 | 98 | 1019.5 |
| 20260502060613 | 2 | 121 | 0.0 | 0.0 | 0.00 | 0.00 | 0.00 | 98 | 1019.5 |
| 20260502060110 | 2 | 121 | 0.0 | 0.0 | 0.00 | 0.00 | 0.00 | 98 | 1019.7 |
| 20260502055608 | 2 | 121 | 0.0 | 0.0 | 0.00 | 0.00 | 0.00 | 97 | 1019.7 |
| 20260502055106 | 2 | 121 | 0.0 | 0.0 | 0.00 | 0.00 | 0.00 | 97 | 1019.7 |
| 20260502054604 | 2 | 121 | 0.0 | 0.0 | 0.00 | 0.00 | 0.00 | 97 | 1019.4 |
| 20260502054101 | 2 | 121 | 0.0 | 0.0 | 0.00 | 0.00 | 0.00 | 97 | 1019.4 |
| 20260502053558 | 3 | 121 | 0.0 | 0.0 | 0.00 | 0.00 | 0.00 | 97 | 1019.7 |
| 20260502053055 | 3 | 121 | 0.0 | 0.0 | 0.00 | 0.00 | 0.00 | 97 | 1019.7 |
| 20260502052554 | 3 | 121 | 0.0 | 0.0 | 0.00 | 0.00 | 0.00 | 97 | 1019.7 |
| 20260502052052 | 3 | 121 | 0.0 | 0.0 | 0.00 | 0.00 | 0.00 | 97 | 1019.7 |
| 20260502051549 | 3 | 121 | 0.0 | 0.0 | 0.00 | 0.00 | 0.00 | 97 | 1019.8 |
| 20260502051047 | 3 | 121 | 0.0 | 0.0 | 0.00 | 0.00 | 0.00 | 96 | 1019.7 |
| 20260502050543 | 3 | 121 | 0.0 | 0.0 | 0.00 | 0.00 | 0.00 | 96 | 1019.7 |
| 20260502050040 | 3 | 121 | 0.0 | 0.0 | 0.00 | 0.00 | 0.00 | 96 | 1019.9 |
| 20260502045537 | 3 | 121 | 0.0 | 0.0 | 0.00 | 0.00 | 0.00 | 96 | 1019.9 |
| 20260502045034 | 3 | 121 | 0.0 | 0.0 | 0.00 | 0.00 | 0.00 | 96 | 1019.9 |
| 20260502044530 | 3 | 121 | 0.0 | 0.0 | 0.00 | 0.00 | 0.00 | 95 | 1019.7 |
| 20260502044027 | 3 | 121 | 0.0 | 0.0 | 0.00 | 0.00 | 0.00 | 95 | 1019.7 |
| 20260502043525 | 3 | 121 | 0.0 | 0.0 | 0.00 | 0.00 | 0.00 | 95 | 1020.0 |
| 20260502043020 | 3 | 121 | 0.0 | 0.0 | 0.00 | 0.00 | 0.00 | 94 | 1019.8 |
| 20260502042516 | 3 | 121 | 0.0 | 0.0 | 0.00 | 0.00 | 0.00 | 94 | 1019.9 |
| 20260502042014 | 4 | 121 | 0.0 | 0.0 | 0.00 | 0.00 | 0.00 | 93 | 1019.9 |
| 20260502041511 | 4 | 121 | 0.0 | 0.0 | 0.00 | 0.00 | 0.00 | 93 | 1019.8 |
| 20260502041008 | 4 | 121 | 0.0 | 0.0 | 0.00 | 0.00 | 0.00 | 92 | 1019.8 |
| 20260502040504 | 5 | 121 | 0.0 | 0.0 | 0.00 | 0.00 | 0.00 | 92 | 1019.9 |
| 20260502040001 | 5 | 121 | 0.0 | 0.0 | 0.00 | 0.00 | 0.00 | 92 | 1020.0 |
| 20260502035457 | 5 | 121 | 0.0 | 0.0 | 0.00 | 0.00 | 0.00 | 91 | 1019.7 |
| 20260502034955 | 5 | 121 | 0.0 | 0.0 | 0.00 | 0.00 | 0.00 | 89 | 1019.9 |
| 20260502034453 | 5 | 121 | 0.0 | 0.0 | 0.00 | 0.00 | 0.00 | 90 | 1019.8 |
| 20260502033951 | 5 | 121 | 0.0 | 0.0 | 0.00 | 0.00 | 0.00 | 90 | 1019.5 |
| 20260502033448 | 5 | 121 | 0.0 | 0.0 | 0.00 | 0.00 | 0.00 | 89 | 1019.6 |
| 20260502032945 | 5 | 121 | 0.0 | 0.0 | 0.00 | 0.00 | 0.00 | 89 | 1019.5 |
| 20260502032442 | 6 | 121 | 0.0 | 0.0 | 0.00 | 0.00 | 0.00 | 88 | 1019.5 |
| 20260502031939 | 6 | 121 | 0.0 | 0.0 | 0.00 | 0.00 | 0.00 | 88 | 1019.6 |
| 20260502031437 | 6 | 121 | 0.0 | 0.0 | 0.00 | 0.00 | 0.00 | 86 | 1019.7 |
| 20260502030935 | 6 | 121 | 0.0 | 0.0 | 0.00 | 0.00 | 0.00 | 85 | 1019.8 |
| 20260502030433 | 6 | 121 | 0.0 | 0.0 | 0.00 | 0.00 | 0.00 | 84 | 1019.8 |
| 20260502025931 | 6 | 121 | 0.0 | 0.0 | 0.00 | 0.00 | 0.00 | 83 | 1019.8 |
| 20260502025427 | 6 | 121 | 0.0 | 0.0 | 0.00 | 0.00 | 0.00 | 82 | 1019.9 |
| 20260502024925 | 6 | 121 | 0.0 | 0.0 | 0.00 | 0.00 | 0.00 | 83 | 1019.9 |
| 20260502024423 | 7 | 121 | 0.0 | 0.0 | 0.00 | 0.00 | 0.00 | 82 | 1019.9 |
| 20260502023921 | 7 | 121 | 0.0 | 0.0 | 0.00 | 0.00 | 0.00 | 82 | 1019.8 |
| 20260502023418 | 7 | 123 | 0.0 | 0.0 | 0.00 | 0.00 | 0.00 | 80 | 1019.7 |
| 20260502022916 | 7 | 123 | 0.0 | 0.0 | 0.00 | 0.00 | 0.00 | 77 | 1019.7 |
| 20260502022412 | 7 | 123 | 0.0 | 0.0 | 0.00 | 0.00 | 0.00 | 78 | 1019.8 |
| 20260502021909 | 8 | 123 | 0.0 | 0.0 | 0.00 | 0.00 | 0.00 | 74 | 1019.9 |
| 20260502021406 | 8 | 123 | 0.0 | 0.0 | 0.00 | 0.00 | 0.00 | 70 | 1019.7 |
| 20260502020903 | 8 | 118 | 0.0 | 0.0 | 0.00 | 0.00 | 0.00 | 70 | 1019.6 |
| 20260502020401 | 8 | 119 | 0.0 | 1.6 | 0.00 | 0.00 | 0.00 | 69 | 1019.3 |
| 20260502015858 | 8 | 336 | 1.6 | 3.2 | 0.00 | 0.00 | 0.00 | 68 | 1019.2 |
| 20260502015355 | 8 | 352 | 0.0 | 0.0 | 0.00 | 0.00 | 0.00 | 68 | 1019.0 |
| 20260502014852 | 9 | 262 | 0.0 | 3.2 | 0.00 | 0.00 | 0.00 | 68 | 1018.9 |
| 20260502014349 | 9 | 297 | 3.2 | 4.8 | 0.00 | 0.00 | 0.00 | 68 | 1018.9 |
| 20260502013845 | 9 | 247 | 1.6 | 4.8 | 0.00 | 0.00 | 0.00 | 67 | 1018.7 |
| 20260502013341 | 9 | 40 | 1.6 | 6.4 | 0.00 | 0.00 | 0.00 | 68 | 1018.6 |
| 20260502012837 | 9 | 36 | 0.0 | 1.6 | 0.00 | 0.00 | 0.00 | 68 | 1018.8 |